Location: Casteau
(50.5142°N, 4.0161°E)
Time: 05:11:01
(UTC+00:00)

Vanguard 1 Rocket - Pass Details

Date: 04 August 2021
Orbit: 650 x 4226 km, 34.3° (Epoch: 21 September)

Event Time Altitude Azimuth Distance (km) Brightness Sun altitude
Rises 10:28:28 0° 245° (WSW) 8,030 12.2 52.8°
Reaches altitude 10° 10:35:03 10° 240° (WSW) 6,580 11.9 53.4°
Maximum altitude 10:51:38 38° 182° (S) 3,216 11.7 54.6°
Drops below altitude 10° 11:01:02 10° 118° (ESE) 3,789 11.1 55.2°
Sets 11:03:42 0° 110° (ESE) 4,421 11.2 55.3°
